This demonstration page uses our WeatherBlox Daily Observations layout. Learn more.

Left ArrowRight Arrow

31.84235, -102.49876

Hourly Observations for May 26, 2015

Temp ( °F °C ) Dew Point ( °F °C ) Humidity (%) Winds ( mph kmh ) Pressure ( in mb ) Visibility ( mi km ) Precip ( " mm )
12:53 am 00:53 Clear 66 18.9 47 8.3 50 50 S 8 13 29.81 1010 10 16 0.00 0.00
1:53 am 01:53 Clear 67 19.4 50 10 55 55 S 13 20 29.81 1009 10 16 0.00 0.00
2:53 am 02:53 Clear 66 18.9 53 11.7 63 63 S 13 20 29.80 1009 10 16 0.00 0.00
3:53 am 03:53 Clear 62 16.7 52 11.1 70 70 SW 6 9 29.83 1010 10 16 0.00 0.00
4:53 am 04:53 Clear 62 16.7 53 11.7 73 73 S 7 11 29.83 1010 10 16 0.00 0.00
5:53 am 05:53 Clear 63 17.2 54 12.2 73 73 W 3 6 29.85 1011 10 16 0.00 0.00
6:53 am 06:53 Sunny 60 15.6 54 12.2 80 80 WNW 7 11 29.88 1012 8 13 0.00 0.00
7:53 am 07:53 Sunny 64 17.8 54 12.2 70 70 Calm 29.89 1012 9 14 0.00 0.00
8:53 am 08:53 Hazy 70 21.1 56 13.3 61 61 SW 8 13 29.90 1013 6 10 0.00 0.00
9:53 am 09:53 Sunny 73 22.8 60 15.6 64 64 SW 14 22 29.92 1013 8 13 0.00 0.00
10:53 am 10:53 Sunny 75 23.9 60 15.6 60 60 SSW 10 17 29.91 1013 9 14 0.00 0.00
11:53 am 11:53 Sunny 79 26.1 61 16.1 54 54 SSW 13 20 29.91 1013 9 14 0.00 0.00
12:53 pm 12:53 Sunny 82 27.8 56 13.3 41 41 SSW 12 19 29.91 1013 10 16 0.00 0.00
1:53 pm 13:53 Sunny 85 29.4 48 8.9 28 28 SSW 14 22 29.89 1012 10 16 0.00 0.00
2:53 pm 14:53 Sunny 86 30 40 4.4 20 20 SSW 12 19 29.87 1012 10 16 0.00 0.00
3:53 pm 15:53 Sunny 88 31.1 37 2.8 16 16 SW 8 13 29.87 1011 10 16 0.00 0.00
4:53 pm 16:53 Sunny 86 30 32 0 14 14 WSW 8 13 29.85 1011 10 16 0.00 0.00
5:53 pm 17:53 Sunny 88 31.1 35 1.7 15 15 undefined N/A 29.84 1010 10 16 0.00 0.00
6:53 pm 18:53 Sunny 87 30.6 33 0.6 14 14 WSW 5 7 29.82 1010 10 16 0.00 0.00
7:53 pm 19:53 Sunny 85 29.4 34 1.1 16 16 WSW 6 9 29.82 1010 10 16 0.00 0.00
8:53 pm 20:53 Clear 80 26.7 41 5 25 25 NNE 3 6 29.83 1010 10 16 0.00 0.00
9:53 pm 21:53 Clear 76 24.4 42 5.6 30 30 E 6 9 29.85 1011 10 16 0.00 0.00
10:53 pm 22:53 Clear 77 25 62 16.7 60 60 SSE 12 19 29.88 1012 9 14 0.00 0.00
11:53 pm 23:53 Clear 75 23.9 64 17.8 69 69 S 10 17 29.87 1012 8 13 0.00 0.00

Powered by AerisWeather